Wind_Speed
21 21 19 19 19 18 17 16 16 17 16 14 13 12 12 12 12 12 12 12 12 12 12 12 12 13 13 14 15 16 17 18 19 20 20 20 18 17 15 14 13 12 11 10
21 20 20 21 20 18 16 16 16 16 16 14 14 13 13 13 13 13 13 12 13 13 12 12 12 12 12 14 15 16 17 18 19 20 20 21 20 18 17 15 14 13 11 11
21 21 21 20 19 17 16 16 16 16 15 14 13 13 14 14 13 13 14 14 13 13 12 12 12 11 11 12 13 16 17 18 20 21 22 21 20 19 17 16 15 14 12 11
22 22 21 20 19 17 16 17 17 16 14 14 13 11 14 14 14 13 14 14 14 13 12 12 11 11 11 11 13 15 16 18 19 21 22 22 21 19 18 17 16 15 13 12
22 22 21 20 18 18 18 18 17 16 15 14 13 11 12 13 13 14 14 14 13 12 12 12 11 11 11 12 13 15 15 17 19 20 22 22 22 21 20 18 17 15 13 12
23 22 21 20 20 19 18 17 16 15 14 14 14 12 10 11 12 13 14 14 13 11 11 11 11 11 11 11 12 15 15 16 18 20 23 23 23 21 20 18 17 16 15 13
22 21 21 20 20 19 18 16 14 14 14 14 15 12 11 11 12 13 13 13 12 11 10 10 11 11 11 11 11 13 14 16 18 20 22 23 23 21 20 18 17 17 16 14
21 21 21 20 20 19 18 17 16 15 14 14 16 13 11 12 12 12 12 12 11 11 10 10 11 12 12 12 12 12 15 17 18 20 22 22 23 22 21 19 18 18 17 15
20 21 21 21 20 20 19 19 18 17 16 15 14 13 12 13 13 12 12 11 11 10 10 10 10 10 11 12 12 13 15 17 19 20 22 23 23 22 21 20 19 18 17 15
21 21 21 20 20 21 21 19 19 18 16 15 14 13 12 12 12 13 13 12 11 10 10 9 8 8 9 11 12 13 13 15 18 21 22 23 23 22 21 21 20 19 16 15
21 20 21 21 21 20 21 21 20 19 18 15 14 14 15 14 13 13 12 12 11 10 9 9 9 9 10 11 12 12 13 15 17 20 22 23 23 23 22 21 20 18 17 15
21 20 20 21 22 22 22 21 21 20 19 17 15 15 16 15 14 13 12 11 11 10 9 9 9 9 10 11 12 13 14 14 17 19 22 23 22 21 21 20 19 18 17 16
22 22 21 20 22 23 23 22 22 22 21 19 17 17 17 16 15 14 12 11 11 10 10 10 10 9 9 10 12 13 15 15 16 18 20 22 21 21 21 20 18 17 16 15
23 23 22 20 20 22 23 22 23 23 22 20 19 18 19 17 16 15 13 12 11 11 10 10 10 10 10 11 12 13 14 15 17 18 19 20 21 21 20 19 18 18 17 16
24 23 23 23 22 22 22 22 23 23 22 21 20 19 19 19 18 16 15 13 13 12 11 11 11 10 10 11 12 13 13 14 15 16 18 20 21 20 20 19 19 18 18 17
24 24 23 22 21 22 22 22 22 22 22 21 20 20 20 20 19 18 16 15 14 13 13 12 12 12 12 12 13 13 14 14 15 16 17 18 18 18 19 19 19 19 18 19
25 24 23 21 21 22 23 22 22 23 22 22 21 21 21 20 19 18 17 16 15 14 14 14 14 14 14 14 14 14 14 15 16 16 16 16 17 18 18 20 20 20 19 19
25 24 23 23 22 23 21 21 22 23 22 22 23 22 22 20 19 18 18 18 17 16 16 16 16 15 15 15 15 15 15 16 16 16 16 17 17 18 18 19 20 21 21 21
24 23 23 22 22 22 22 21 21 22 23 23 23 22 22 20 19 19 20 19 18 17 17 18 18 17 17 17 16 16 16 16 16 17 17 18 18 18 18 19 20 21 22 22
24 23 22 21 21 21 22 21 21 22 23 23 22 22 22 21 21 21 21 20 19 18 18 18 19 19 18 18 18 18 18 17 17 18 18 18 18 18 19 19 20 20 21 22
23 22 22 22 22 22 22 20 21 22 22 21 21 21 22 23 22 22 22 21 20 18 18 18 18 19 19 18 18 18 18 18 19 19 19 18 19 19 19 19 20 21 23 24
23 23 23 23 23 23 21 21 22 22 21 21 21 22 22 23 23 23 22 21 21 19 18 18 18 18 19 20 19 18 19 19 19 19 19 19 20 20 20 21 22 23 24 24
24 23 23 23 23 23 22 22 22 21 21 22 22 22 24 24 24 23 23 23 21 20 19 18 19 20 20 20 20 20 20 20 20 20 20 20 20 21 21 22 24 24 25 26
23 23 23 23 22 22 22 22 21 21 21 21 21 23 24 25 25 24 24 23 23 22 21 20 21 21 21 22 22 22 21 21 21 21 21 21 21 22 22 23 23 25 25 26
22 22 23 23 23 23 22 21 21 20 20 20 22 24 25 25 25 24 24 23 23 22 22 22 22 23 23 23 23 23 23 22 22 23 23 23 23 23 24 24 24 25 25 27
21 21 21 22 22 22 21 20 20 20 20 20 21 22 23 24 24 24 24 24 23 23 23 23 23 23 23 23 23 23 23 23 23 24 24 24 24 24 25 26 26 27 27 28
Wind_Direction
254 252 252 248 245 243 244 244 248 255 261 263 266 269 270 277 284 289 286 287 286 279 269 265 262 256 245 238 235 232 226 220 216 213 213 213 212 213 212 211 211 209 208 207
248 247 245 244 244 244 244 243 247 254 259 262 264 266 270 277 284 287 287 288 288 285 275 265 262 259 249 240 233 232 228 223 217 213 212 212 211 210 211 208 209 207 204 201
241 240 241 241 241 240 239 239 241 249 258 263 265 265 270 277 282 283 284 287 288 284 275 266 262 261 251 238 234 230 227 220 217 212 212 213 213 213 209 207 206 204 201 198
235 237 237 237 237 236 235 237 241 249 254 261 264 258 272 275 278 279 282 286 288 281 273 265 261 257 249 239 236 231 228 222 218 215 213 214 213 211 207 205 203 201 200 201
233 234 235 235 235 233 231 237 241 248 253 257 268 262 267 273 272 276 282 286 288 281 273 266 259 251 248 243 237 230 225 221 219 217 214 212 210 207 205 204 201 200 201 202
230 232 232 232 232 232 234 239 245 251 255 257 263 265 267 270 267 274 282 286 286 283 273 264 252 250 251 246 234 227 223 220 217 215 213 211 208 207 205 203 203 203 202 203
229 230 230 231 232 234 234 236 243 251 255 259 261 263 264 267 266 270 279 284 284 281 273 261 254 256 255 243 233 227 221 219 217 214 210 206 205 203 201 202 202 202 200 202
227 227 228 228 229 233 235 233 231 238 250 256 265 266 269 269 269 271 274 277 279 279 272 262 258 256 252 238 227 225 220 216 212 208 204 201 202 202 202 202 201 200 200 202
220 225 228 226 225 227 232 232 234 241 248 251 258 267 272 272 270 271 270 273 275 277 272 265 261 252 241 230 223 222 217 214 210 206 204 201 200 200 201 201 201 201 203 204
218 224 230 227 227 230 231 235 238 241 246 253 262 268 268 268 269 269 269 270 272 271 271 264 257 244 234 224 221 215 212 208 207 205 203 199 198 198 200 201 202 205 206 207
218 223 230 229 230 233 235 237 239 242 243 249 259 263 260 263 267 270 267 267 266 265 261 253 248 237 231 223 217 215 210 204 204 201 198 196 199 201 202 204 206 209 211 216
222 223 229 231 231 230 234 238 240 242 248 248 250 258 259 260 266 267 265 262 259 259 252 247 244 240 232 221 215 212 206 204 200 198 197 197 199 201 202 206 209 211 216 221
227 228 231 237 238 236 238 240 240 243 246 250 252 258 258 258 261 262 261 258 255 254 248 244 240 234 226 217 213 207 205 201 198 197 198 201 203 205 206 209 212 216 221 224
232 233 231 233 239 243 244 243 244 244 246 251 251 251 256 256 257 258 258 253 252 249 243 240 235 228 222 214 208 206 203 202 200 200 202 205 207 210 212 215 219 222 226 228
232 236 238 236 237 241 244 244 246 246 246 247 248 248 250 252 252 254 252 250 251 245 238 231 227 222 214 209 207 204 203 203 202 204 208 210 212 215 219 221 223 227 230 233
235 239 241 244 245 247 246 246 245 245 244 245 241 244 247 249 248 248 247 246 247 242 235 230 225 222 215 210 209 208 206 206 206 208 210 212 215 219 224 226 228 232 236 239
238 241 243 246 248 249 248 246 245 244 240 239 241 244 245 245 246 244 241 242 243 240 234 229 225 223 218 214 213 215 213 212 212 213 216 220 222 226 228 230 233 237 241 244
239 243 245 245 248 249 249 244 242 241 241 242 244 244 245 244 243 239 236 236 238 239 236 230 225 223 221 218 217 218 218 219 218 219 221 224 227 231 233 235 239 242 246 248
240 241 243 245 248 251 249 244 242 241 241 242 245 245 243 240 239 236 232 231 234 235 235 229 224 224 223 221 220 220 220 223 225 226 227 229 231 233 237 242 246 247 249 252
238 238 241 244 245 247 247 242 240 239 241 239 241 241 238 234 234 233 229 228 231 232 232 227 223 223 224 223 221 222 224 226 228 230 232 234 235 238 242 245 247 250 252 255
236 238 239 241 243 243 242 238 236 237 239 238 238 238 233 230 229 229 228 227 227 228 228 225 222 222 224 224 223 223 225 228 230 233 234 236 239 242 245 249 252 254 256 259
233 237 238 238 240 239 237 235 234 236 237 237 236 234 230 228 228 228 226 225 225 225 224 222 220 221 223 224 224 225 227 230 232 234 237 240 244 247 251 253 257 260 261 263
232 234 235 236 238 238 236 234 235 237 237 236 234 231 227 226 225 224 224 224 223 221 221 220 219 220 222 224 226 229 231 234 236 237 238 241 245 250 253 257 260 264 266 268
232 233 235 236 236 235 235 234 236 236 234 234 232 228 225 225 224 222 221 221 220 221 222 221 223 225 226 227 229 232 234 236 239 242 244 247 250 254 256 261 264 265 267 268
231 232 233 234 235 235 235 234 234 232 231 231 228 223 222 221 221 220 220 219 220 222 225 226 227 228 229 230 233 236 239 241 243 245 248 251 254 257 260 264 267 268 270 270
227 228 228 228 230 231 232 232 231 231 231 229 228 224 220 218 218 219 220 220 223 224 227 229 230 232 233 234 235 237 241 245 246 247 249 252 256 259 263 266 268 270 273 275
Height
5835 5837 5839 5840 5841 5843 5845 5846 5847 5848 5848 5849 5849 5849 5849 5849 5848 5848 5846 5845 5844 5843 5842 5841 5841 5840 5841 5842 5843 5845 5847 5850 5852 5855 5858 5861 5863 5866 5868 5870 5872 5874 5875 5877
5830 5832 5833 5834 5836 5838 5840 5842 5844 5844 5844 5846 5846 5847 5846 5846 5846 5845 5844 5843 5841 5840 5839 5838 5838 5838 5837 5839 5840 5842 5844 5847 5849 5852 5855 5858 5860 5863 5866 5868 5870 5872 5874 5876
5824 5827 5827 5830 5832 5834 5836 5839 5840 5840 5841 5842 5844 5844 5844 5843 5842 5842 5841 5840 5838 5837 5836 5836 5835 5835 5835 5836 5837 5839 5841 5843 5846 5849 5852 5855 5858 5861 5864 5866 5869 5871 5873 5875
5818 5820 5823 5825 5828 5830 5833 5834 5835 5837 5838 5840 5841 5843 5841 5840 5839 5839 5838 5837 5835 5834 5833 5833 5832 5832 5833 5834 5835 5836 5838 5840 5843 5845 5849 5852 5856 5859 5862 5864 5867 5869 5871 5873
5814 5816 5818 5821 5824 5826 5829 5830 5832 5833 5835 5837 5837 5839 5840 5837 5836 5836 5834 5833 5832 5831 5830 5830 5829 5829 5830 5831 5832 5833 5835 5837 5840 5843 5846 5849 5853 5856 5859 5862 5865 5868 5870 5872
5809 5811 5814 5817 5819 5822 5824 5826 5828 5830 5833 5834 5835 5835 5836 5834 5833 5832 5831 5830 5829 5828 5827 5827 5827 5827 5827 5828 5829 5830 5832 5834 5837 5840 5843 5846 5850 5854 5857 5860 5863 5866 5868 5871
5804 5807 5809 5812 5815 5817 5820 5824 5827 5829 5830 5832 5831 5831 5832 5830 5829 5828 5827 5826 5825 5825 5825 5824 5824 5824 5824 5825 5827 5828 5829 5832 5834 5837 5840 5844 5848 5851 5855 5858 5861 5864 5867 5869
5800 5803 5805 5808 5811 5814 5816 5820 5824 5827 5828 5829 5827 5827 5828 5826 5825 5825 5824 5823 5822 5822 5822 5821 5821 5821 5821 5822 5824 5825 5827 5829 5831 5834 5837 5841 5845 5849 5853 5856 5860 5863 5865 5868
5797 5800 5801 5803 5806 5809 5812 5815 5819 5821 5822 5824 5824 5824 5823 5822 5821 5821 5820 5820 5820 5819 5819 5818 5818 5818 5818 5819 5821 5822 5824 5826 5828 5831 5835 5839 5843 5847 5851 5855 5858 5861 5864 5866
5792 5795 5797 5799 5802 5805 5808 5811 5813 5815 5817 5819 5821 5821 5821 5818 5818 5817 5817 5817 5816 5816 5816 5815 5815 5815 5816 5817 5818 5819 5821 5823 5825 5828 5832 5836 5841 5845 5849 5853 5856 5859 5862 5865
5787 5791 5793 5795 5798 5801 5803 5806 5808 5811 5812 5815 5817 5819 5815 5814 5814 5814 5813 5813 5813 5813 5813 5812 5813 5813 5814 5815 5816 5817 5819 5821 5823 5826 5830 5834 5839 5843 5847 5851 5854 5857 5860 5862
5782 5786 5789 5791 5793 5795 5798 5800 5803 5805 5807 5808 5811 5815 5810 5810 5810 5810 5810 5810 5810 5810 5810 5810 5810 5811 5811 5812 5814 5816 5818 5820 5822 5825 5829 5833 5837 5842 5845 5849 5852 5855 5858 5860
5778 5781 5784 5786 5790 5790 5792 5794 5796 5799 5801 5803 5806 5810 5805 5805 5806 5806 5806 5806 5807 5807 5807 5808 5808 5809 5810 5811 5812 5814 5817 5819 5822 5825 5828 5832 5836 5840 5843 5847 5850 5852 5855 5858
5773 5776 5780 5783 5784 5785 5786 5789 5790 5793 5795 5797 5799 5801 5801 5801 5801 5802 5802 5803 5804 5804 5805 5805 5806 5807 5808 5809 5811 5813 5816 5818 5821 5824 5827 5831 5834 5838 5841 5844 5847 5850 5852 5855
5767 5770 5772 5775 5777 5779 5780 5782 5784 5786 5788 5791 5793 5795 5795 5795 5796 5797 5798 5799 5800 5801 5802 5803 5804 5805 5807 5808 5810 5813 5815 5817 5820 5823 5826 5829 5832 5836 5839 5842 5844 5847 5849 5851
5760 5763 5766 5768 5770 5772 5774 5776 5777 5779 5782 5784 5786 5788 5789 5790 5791 5793 5794 5795 5796 5797 5799 5800 5802 5803 5805 5807 5809 5811 5813 5816 5818 5821 5824 5827 5830 5833 5836 5839 5841 5843 5845 5847
5755 5758 5760 5763 5764 5765 5768 5770 5771 5773 5775 5778 5780 5782 5783 5784 5786 5787 5789 5791 5792 5794 5795 5797 5799 5801 5803 5805 5807 5810 5812 5814 5817 5819 5822 5825 5828 5830 5833 5835 5838 5840 5841 5843
5749 5751 5754 5757 5759 5760 5764 5764 5765 5767 5769 5771 5773 5775 5777 5779 5780 5782 5784 5786 5788 5790 5792 5794 5796 5798 5800 5802 5805 5808 5810 5813 5815 5817 5820 5822 5825 5827 5830 5832 5834 5835 5837 5839
5742 5745 5748 5750 5752 5754 5756 5757 5759 5761 5763 5765 5767 5769 5771 5773 5775 5777 5779 5781 5783 5785 5787 5790 5792 5795 5797 5800 5803 5805 5808 5811 5813 5816 5818 5820 5822 5824 5826 5828 5829 5831 5832 5834
5736 5739 5742 5744 5746 5748 5750 5751 5753 5756 5757 5759 5760 5763 5765 5767 5770 5772 5774 5776 5779 5781 5783 5785 5788 5791 5794 5797 5800 5803 5805 5808 5810 5813 5815 5817 5819 5821 5822 5823 5825 5826 5828 5829
5730 5732 5735 5737 5739 5741 5743 5745 5747 5751 5752 5753 5755 5757 5759 5761 5764 5767 5769 5771 5774 5776 5779 5781 5784 5787 5790 5793 5796 5799 5802 5804 5806 5809 5811 5813 5815 5817 5818 5819 5820 5821 5822 5823
5724 5726 5729 5731 5733 5736 5736 5738 5741 5743 5745 5747 5749 5751 5753 5756 5759 5761 5764 5766 5769 5772 5775 5777 5780 5784 5787 5790 5793 5795 5798 5800 5802 5805 5807 5809 5811 5812 5813 5815 5816 5816 5816 5817
5717 5720 5722 5725 5728 5729 5730 5732 5735 5737 5739 5741 5743 5745 5748 5750 5753 5756 5759 5762 5765 5768 5771 5774 5777 5780 5783 5786 5789 5791 5794 5796 5798 5800 5802 5804 5805 5806 5808 5808 5809 5809 5809 5809
5711 5713 5716 5718 5720 5722 5724 5726 5729 5731 5733 5735 5737 5740 5742 5745 5748 5751 5754 5757 5760 5763 5767 5770 5773 5775 5778 5781 5784 5786 5789 5791 5793 5795 5797 5798 5800 5801 5801 5802 5802 5802 5802 5802
5705 5708 5710 5712 5715 5717 5719 5721 5723 5725 5728 5729 5732 5734 5736 5740 5743 5746 5749 5753 5756 5759 5762 5765 5768 5771 5773 5776 5779 5781 5784 5786 5788 5790 5791 5792 5793 5794 5795 5795 5795 5795 5795 5795
5699 5702 5705 5707 5709 5712 5714 5716 5718 5720 5722 5724 5726 5728 5731 5734 5737 5741 5744 5747 5751 5754 5757 5760 5763 5766 5768 5771 5773 5776 5778 5780 5782 5783 5785 5786 5787 5788 5788 5788 5788 5788 5787 5787